User: anonymous   Login
Location: Caltech
(34.1382°N, 118.1253°W)
Time: 10:36:44
(UTC-07:00)
Language:

Cosmos 1943 Rocket - Orbit

View from above orbital plane
View from above orbital plane
View from above satellite
View from above satellite

Ground track
Ground track

The orbit data is extracted from the following two-line orbital elements,

1 19120U 88039B   15142.42301435  .00000073  00000-0  58003-4 0  9996
2 19120 071.0133 123.8484 0024177 268.4793 091.3562 14.19104422399027
Epoch (UTC): 22 May 2015 10:09:08
Eccentricity: 0.0024177
inclination: 71.0133°
perigee height: 811 km
apogee height: 846 km
right ascension of ascending node: 123.8484°
argument of perigee: 268.4793°
revolutions per day: 14.19104422
mean anomaly at epoch: 91.3562°
orbit number at epoch: 39902

The dashed part of the orbit path shows where the satellite is in the earth's shadow,  

DLR